Location: Charleville
(26.4021°S, 146.2454°E)
Time: 20:50:16
(UTC+10:00)

ARIANE 6 FM1 Upper Stage - Visible Passes

Search period start: 20 September 2024 00:00
Search period end: 30 September 2024 00:00
Orbit: 566 x 594 km, 62.0° (Epoch: 19 September)

Date Brightness Start Highest point End Pass type
(mag) Time Alt. Az. Time Alt. Az. Time Alt. Az.
24 Sep 5.8 05:11:11 10° NE 05:13:18 13° ENE 05:15:24 10° E visible
25 Sep 5.2 05:14:17 10° NNE 05:17:48 24° ENE 05:21:18 10° ESE visible
26 Sep 4.0 05:18:13 10° N 05:22:20 44° ENE 05:26:28 10° SE visible
27 Sep 2.8 05:22:34 10° NNW 05:26:55 85° ENE 05:31:15 10° SSE visible
28 Sep 3.0 05:27:18 10° NW 05:31:32 51° WSW 05:35:46 10° SSE visible
29 Sep 5.2 03:54:48 13° NNE 03:57:07 18° ENE 04:00:07 10° ESE visible
29 Sep 3.7 05:32:25 10° WNW 05:36:12 29° SW 05:40:00 10° S visible
